Tracking 18850 objects as of 22-Nov-2017
HD Live streaming from Space Station
objects crossing your sky now

FENGYUN 1C DEB

Track FENGYUN 1C DEB now!
10-day predictions


NORAD ID: 32089
Int'l Code: 1999-025CQF
Perigee: 783.6 km
Apogee: 959.9 km
Inclination: 98.9 °
Period: 102.2 minutes
Semi major axis: 7242 km
RCS: 0.0109 m2 (small)
Launch date: May 10, 1999
Source: People's Republic of China (PRC)
Launch site: Taiyaun Space Center, China (TSC)

Note: This is SATELLITE DEBRIS
aabbcc
Your satellite tracking list
Your tracking list is empty




NASA's NSSDC Master Catalog

Two Line Element Set (TLE):
1 32089U 99025CQF 17320.91377376 +.00000440 +00000-0 +26367-3 0  9998
2 32089 098.8928 003.2806 0121713 188.7855 171.1185 14.08470378216740
Source of the keplerian elements: AFSPC